AAL811 KLAX-KDFW

Flight info

Callsign AAL811
Flight time 2h 17m
Altitude 41000
Route DOTSS2 CNERY BLH J169 TFD J50 SSO J4 INK GEEKY BOOVE7
Aircraft B788/H-L/1101

Departure

Time 2026-04-25 20:47
Airport Los Angeles International Airport (KLAX)

Arrival

Time 2026-04-25 23:05
Airport Dallas Fort Worth International Airport (KDFW)
Time Latitude Longitude Altitude Speed Heading
2026-04-25 20:36 33.94597 -118.40327 139 ft 0 kts 266°
2026-04-25 20:37 33.94597 -118.40328 139 ft 0 kts 266°
2026-04-25 20:39 33.94597 -118.40329 139 ft 0 kts 266°
2026-04-25 20:40 33.94598 -118.40307 139 ft 3 kts 266°
2026-04-25 20:40 33.94599 -118.40284 139 ft 3 kts 266°
2026-04-25 20:40 33.94600 -118.40266 139 ft 1 kts 266°
2026-04-25 20:40 33.94617 -118.40291 139 ft 7 kts 341°
2026-04-25 20:41 33.94689 -118.40293 139 ft 12 kts 356°
2026-04-25 20:41 33.94721 -118.40295 139 ft 2 kts 356°
2026-04-25 20:41 33.94727 -118.40296 139 ft 3 kts 356°
2026-04-25 20:41 33.94755 -118.40298 139 ft 4 kts 356°
2026-04-25 20:42 33.94796 -118.40302 139 ft 8 kts 355°
2026-04-25 20:42 33.94852 -118.40307 139 ft 5 kts 357°
2026-04-25 20:42 33.94898 -118.40277 139 ft 11 kts 66°
2026-04-25 20:42 33.94911 -118.40156 139 ft 13 kts 85°
2026-04-25 20:43 33.94915 -118.40104 139 ft 6 kts 84°
2026-04-25 20:43 33.94923 -118.40024 139 ft 12 kts 82°
2026-04-25 20:43 33.94937 -118.39960 139 ft 8 kts 53°
2026-04-25 20:43 33.94954 -118.39946 140 ft 0 kts 25°
2026-04-25 20:44 33.94955 -118.39946 140 ft 0 kts 25°
2026-04-25 20:45 33.94968 -118.39942 139 ft 7 kts 12°
2026-04-25 20:45 33.95030 -118.39961 139 ft 9 kts 309°
2026-04-25 20:45 33.95038 -118.40008 139 ft 0 kts 262°
2026-04-25 20:46 33.94995 -118.40403 139 ft 107 kts 263°
2026-04-25 20:47 33.94864 -118.41697 183 ft 194 kts 263°
2026-04-25 20:47 33.94701 -118.43390 973 ft 208 kts 263°
2026-04-25 20:47 33.94535 -118.45065 1992 ft 199 kts 261°
2026-04-25 20:47 33.94407 -118.46790 2576 ft 216 kts 264°
2026-04-25 20:48 33.94323 -118.48698 3174 ft 239 kts 266°
2026-04-25 20:48 33.94228 -118.50757 4012 ft 252 kts 265°
2026-04-25 20:48 33.94073 -118.52892 4458 ft 261 kts 264°
2026-04-25 20:48 33.93903 -118.55071 4729 ft 261 kts 263°
2026-04-25 20:49 33.93730 -118.57254 4906 ft 263 kts 263°
2026-04-25 20:49 33.93555 -118.59460 4967 ft 264 kts 263°
2026-04-25 20:49 33.93379 -118.61663 4971 ft 263 kts 263°
2026-04-25 20:49 33.92900 -118.63770 4898 ft 262 kts 246°
2026-04-25 20:50 33.92181 -118.64911 4947 ft 258 kts 229°
2026-04-25 20:50 33.90653 -118.66021 4936 ft 262 kts 203°
2026-04-25 20:50 33.88797 -118.66176 5274 ft 276 kts 174°
2026-04-25 20:50 33.87055 -118.65244 6390 ft 275 kts 149°
2026-04-25 20:51 33.85602 -118.63809 7694 ft 268 kts 143°
2026-04-25 20:51 33.84116 -118.62423 8632 ft 273 kts 146°
2026-04-25 20:51 33.82530 -118.61104 9471 ft 280 kts 150°
2026-04-25 20:51 33.80867 -118.59834 10310 ft 287 kts 152°
2026-04-25 20:52 33.79106 -118.58557 10911 ft 304 kts 154°
2026-04-25 20:52 33.77872 -118.57688 11281 ft 316 kts 154°
2026-04-25 20:52 33.75227 -118.55860 12014 ft 340 kts 155°
2026-04-25 20:52 33.73135 -118.54430 12526 ft 359 kts 155°
2026-04-25 20:53 33.70959 -118.52747 12908 ft 387 kts 149°
2026-04-25 20:53 33.69085 -118.50253 13261 ft 419 kts 130°
2026-04-25 20:53 33.67768 -118.47060 13980 ft 435 kts 117°
2026-04-25 20:53 33.66854 -118.43553 14777 ft 446 kts 110°
2026-04-25 20:54 33.66085 -118.39917 15579 ft 454 kts 107°
2026-04-25 20:54 33.65375 -118.36189 16362 ft 462 kts 105°
2026-04-25 20:54 33.64920 -118.32331 17155 ft 470 kts 100°
2026-04-25 20:54 33.64658 -118.28396 17922 ft 477 kts 97°
2026-04-25 20:55 33.64527 -118.24395 18691 ft 482 kts 95°
2026-04-25 20:55 33.64479 -118.20359 19454 ft 487 kts 93°
2026-04-25 20:55 33.64468 -118.16242 20169 ft 493 kts 92°
2026-04-25 20:55 33.64471 -118.12104 20883 ft 498 kts 92°
2026-04-25 20:56 33.64475 -118.07933 21563 ft 503 kts 92°
2026-04-25 20:56 33.64476 -118.03759 22194 ft 507 kts 93°
2026-04-25 20:56 33.64472 -117.99518 22798 ft 512 kts 93°
2026-04-25 20:56 33.64464 -117.95200 23396 ft 516 kts 93°
2026-04-25 20:57 33.64452 -117.90875 23993 ft 520 kts 93°
2026-04-25 20:57 33.64240 -117.86536 24539 ft 522 kts 99°
2026-04-25 20:57 33.63740 -117.82197 25079 ft 525 kts 102°
2026-04-25 20:57 33.63123 -117.77860 25551 ft 531 kts 104°
2026-04-25 20:58 33.62430 -117.73485 26019 ft 535 kts 105°
2026-04-25 20:58 33.61635 -117.69165 26497 ft 539 kts 107°
2026-04-25 20:58 33.60706 -117.64781 26996 ft 543 kts 109°
2026-04-25 20:58 33.59690 -117.60411 27550 ft 546 kts 110°
2026-04-25 20:59 33.58621 -117.56018 28090 ft 551 kts 110°
2026-04-25 20:59 33.57517 -117.51582 28610 ft 557 kts 111°
2026-04-25 20:59 33.56397 -117.47105 29135 ft 563 kts 111°
2026-04-25 20:59 33.55268 -117.42590 29727 ft 566 kts 111°
2026-04-25 21:00 33.54140 -117.38062 30376 ft 568 kts 110°
2026-04-25 21:00 33.53390 -117.35046 30811 ft 569 kts 110°
2026-04-25 21:00 33.50784 -117.24443 32316 ft 571 kts 109°
2026-04-25 21:01 33.50113 -117.19721 32883 ft 579 kts 99°
2026-04-25 21:01 33.49952 -117.14821 33585 ft 580 kts 94°
2026-04-25 21:01 33.50004 -117.10070 34194 ft 581 kts 92°
2026-04-25 21:01 33.50094 -117.05237 34796 ft 580 kts 92°
2026-04-25 21:02 33.50147 -117.00390 35402 ft 579 kts 93°
2026-04-25 21:02 33.50147 -116.95562 35923 ft 579 kts 94°
2026-04-25 21:02 33.50102 -116.90734 36462 ft 578 kts 95°
2026-04-25 21:02 33.50030 -116.85923 36976 ft 577 kts 95°
2026-04-25 21:03 33.49945 -116.81119 37467 ft 577 kts 95°
2026-04-25 21:03 33.49857 -116.76311 37944 ft 576 kts 96°
2026-04-25 21:03 33.49768 -116.71515 38392 ft 575 kts 96°
2026-04-25 21:03 33.49683 -116.66741 38736 ft 577 kts 97°
2026-04-25 21:04 33.49593 -116.61917 39130 ft 577 kts 97°
2026-04-25 21:04 33.49503 -116.57112 39509 ft 576 kts 97°
2026-04-25 21:04 33.49412 -116.52376 39858 ft 576 kts 97°
2026-04-25 21:04 33.49320 -116.47566 40228 ft 575 kts 96°
2026-04-25 21:05 33.49239 -116.42792 40588 ft 574 kts 96°
2026-04-25 21:05 33.49161 -116.38003 40768 ft 573 kts 96°
2026-04-25 21:05 33.49086 -116.33227 40843 ft 573 kts 96°
2026-04-25 21:06 33.48942 -116.23732 40847 ft 566 kts 96°
2026-04-25 21:06 33.48793 -116.14340 40846 ft 562 kts 96°
2026-04-25 21:07 33.48861 -116.04938 40788 ft 570 kts 87°
2026-04-25 21:07 33.50769 -115.95677 40865 ft 574 kts 73°
2026-04-25 21:08 33.53451 -115.86695 40844 ft 576 kts 71°
2026-04-25 21:08 33.56183 -115.77670 40841 ft 574 kts 71°
2026-04-25 21:09 33.60010 -115.64056 40806 ft 572 kts 78°
2026-04-25 21:09 33.61073 -115.54669 40868 ft 567 kts 89°
2026-04-25 21:10 33.61376 -115.45264 40844 ft 566 kts 94°
2026-04-25 21:10 33.61237 -115.35863 40829 ft 563 kts 96°
2026-04-25 21:11 33.60975 -115.26485 40836 ft 562 kts 96°
2026-04-25 21:11 33.60717 -115.17078 40816 ft 565 kts 96°
2026-04-25 21:12 33.60468 -115.07609 40830 ft 568 kts 96°
2026-04-25 21:12 33.60262 -114.99738 40823 ft 568 kts 96°
2026-04-25 21:13 33.59963 -114.88651 40816 ft 567 kts 96°
2026-04-25 21:13 33.59618 -114.79249 40826 ft 566 kts 98°
2026-04-25 21:14 33.59008 -114.69848 40810 ft 566 kts 100°
2026-04-25 21:14 33.58231 -114.60428 40821 ft 566 kts 101°
2026-04-25 21:15 33.57392 -114.51101 40813 ft 566 kts 101°
2026-04-25 21:15 33.56534 -114.41717 40813 ft 565 kts 101°
2026-04-25 21:16 33.55678 -114.32354 40822 ft 565 kts 101°
2026-04-25 21:16 33.54815 -114.22971 40810 ft 566 kts 101°
2026-04-25 21:17 33.54379 -114.18317 40876 ft 555 kts 101°
2026-04-25 21:17 33.53960 -114.13716 40845 ft 555 kts 102°
2026-04-25 21:17 33.53090 -114.04437 40835 ft 564 kts 102°
2026-04-25 21:18 33.52198 -113.95033 40818 ft 570 kts 102°
2026-04-25 21:18 33.51304 -113.85595 40808 ft 569 kts 102°
2026-04-25 21:19 33.50404 -113.76179 40820 ft 569 kts 102°
2026-04-25 21:19 33.49496 -113.66788 40811 ft 571 kts 102°
2026-04-25 21:20 33.48881 -113.60479 40857 ft 572 kts 102°
2026-04-25 21:20 33.47647 -113.47873 40874 ft 572 kts 102°
2026-04-25 21:21 33.46414 -113.38511 40845 ft 564 kts 111°
2026-04-25 21:21 33.43932 -113.29697 40902 ft 557 kts 118°
2026-04-25 21:22 33.40914 -113.21175 40886 ft 553 kts 122°
2026-04-25 21:22 33.37661 -113.12882 40898 ft 555 kts 123°
2026-04-25 21:23 33.34331 -113.04535 40907 ft 555 kts 123°
2026-04-25 21:23 33.31016 -112.96200 40894 ft 555 kts 123°
2026-04-25 21:24 33.27705 -112.87867 40907 ft 554 kts 123°
2026-04-25 21:24 33.24391 -112.79541 40906 ft 555 kts 123°
2026-04-25 21:25 33.21074 -112.71237 40902 ft 560 kts 123°
2026-04-25 21:25 33.17707 -112.62822 40919 ft 561 kts 123°
2026-04-25 21:26 33.14344 -112.54434 40917 ft 561 kts 123°
2026-04-25 21:26 33.10964 -112.46026 40908 ft 561 kts 124°
2026-04-25 21:27 33.07587 -112.37645 40921 ft 560 kts 123°
2026-04-25 21:27 33.04206 -112.29278 40925 ft 561 kts 124°
2026-04-25 21:28 33.00818 -112.20913 40896 ft 560 kts 124°
2026-04-25 21:28 32.97423 -112.12551 40875 ft 560 kts 124°
2026-04-25 21:29 32.94026 -112.04206 40876 ft 560 kts 124°
2026-04-25 21:29 32.90622 -111.95861 40878 ft 560 kts 124°
2026-04-25 21:30 32.87596 -111.87306 40866 ft 571 kts 115°
2026-04-25 21:30 32.85863 -111.79638 40879 ft 576 kts 110°
2026-04-25 21:31 32.83654 -111.68873 40874 ft 576 kts 110°
2026-04-25 21:31 32.81635 -111.59621 40886 ft 576 kts 110°
2026-04-25 21:32 32.80612 -111.55094 41108 ft 554 kts 107°
2026-04-25 21:32 32.79639 -111.50729 40839 ft 543 kts 111°
2026-04-25 21:32 32.77712 -111.42090 40864 ft 543 kts 112°
2026-04-25 21:33 32.75723 -111.33352 40888 ft 550 kts 111°
2026-04-25 21:33 32.73723 -111.24558 40897 ft 558 kts 111°
2026-04-25 21:34 32.71674 -111.15564 40901 ft 567 kts 111°
2026-04-25 21:34 32.69951 -111.08004 40891 ft 574 kts 110°
2026-04-25 21:35 32.67841 -110.98774 40912 ft 580 kts 110°
2026-04-25 21:35 32.65376 -110.88026 40926 ft 580 kts 110°
2026-04-25 21:36 32.63590 -110.80273 40921 ft 581 kts 111°
2026-04-25 21:36 32.61464 -110.71090 40905 ft 581 kts 111°
2026-04-25 21:37 32.59669 -110.63360 40912 ft 581 kts 111°
2026-04-25 21:37 32.57165 -110.52619 40910 ft 582 kts 111°
2026-04-25 21:38 32.55000 -110.43371 40897 ft 581 kts 111°
2026-04-25 21:38 32.52832 -110.34140 40904 ft 580 kts 111°
2026-04-25 21:39 32.50656 -110.24911 40896 ft 581 kts 111°
2026-04-25 21:39 32.48469 -110.15671 40886 ft 584 kts 111°
2026-04-25 21:40 32.46272 -110.06417 40886 ft 584 kts 111°
2026-04-25 21:40 32.44068 -109.97159 40881 ft 583 kts 111°
2026-04-25 21:41 32.41859 -109.87925 40875 ft 583 kts 111°
2026-04-25 21:41 32.39655 -109.78742 40887 ft 583 kts 111°
2026-04-25 21:42 32.37434 -109.69529 40874 ft 583 kts 111°
2026-04-25 21:42 32.35207 -109.60316 40884 ft 583 kts 111°
2026-04-25 21:43 32.32981 -109.51127 40894 ft 584 kts 111°
2026-04-25 21:43 32.30733 -109.41887 40889 ft 585 kts 111°
2026-04-25 21:44 32.28483 -109.32670 40905 ft 583 kts 111°
2026-04-25 21:45 32.25951 -109.18531 40915 ft 591 kts 99°
2026-04-25 21:45 32.25149 -109.08823 40913 ft 594 kts 98°
2026-04-25 21:46 32.24333 -108.99130 40910 ft 589 kts 98°
2026-04-25 21:46 32.23427 -108.89522 40923 ft 587 kts 99°
2026-04-25 21:47 32.22492 -108.80010 40943 ft 590 kts 99°
2026-04-25 21:47 32.21531 -108.70360 41185 ft 569 kts 98°
2026-04-25 21:47 32.21084 -108.65762 40997 ft 564 kts 99°
2026-04-25 21:48 32.20629 -108.61154 41039 ft 566 kts 99°
2026-04-25 21:48 32.19697 -108.51832 40987 ft 576 kts 99°
2026-04-25 21:49 32.18745 -108.42373 41006 ft 584 kts 99°
2026-04-25 21:49 32.17781 -108.32846 40988 ft 591 kts 99°
2026-04-25 21:50 32.16801 -108.23214 40990 ft 591 kts 99°
2026-04-25 21:50 32.15810 -108.13567 40981 ft 591 kts 99°
2026-04-25 21:51 32.14812 -108.03930 40981 ft 590 kts 99°
2026-04-25 21:51 32.13808 -107.94304 40973 ft 590 kts 99°
2026-04-25 21:52 32.12801 -107.84720 40965 ft 590 kts 99°
2026-04-25 21:52 32.11783 -107.75112 40973 ft 590 kts 100°
2026-04-25 21:53 32.10756 -107.65483 40961 ft 591 kts 100°
2026-04-25 21:53 32.09724 -107.55881 40965 ft 590 kts 100°
2026-04-25 21:54 32.08685 -107.46280 40958 ft 591 kts 100°
2026-04-25 21:54 32.07636 -107.36661 40958 ft 590 kts 100°
2026-04-25 21:55 32.06584 -107.27070 40963 ft 590 kts 100°
2026-04-25 21:55 32.05529 -107.17530 40951 ft 591 kts 100°
2026-04-25 21:56 32.04459 -107.07926 40961 ft 590 kts 100°
2026-04-25 21:56 32.03382 -106.98315 40950 ft 591 kts 100°
2026-04-25 21:57 32.02299 -106.88719 40956 ft 590 kts 100°
2026-04-25 21:57 32.01211 -106.79155 40951 ft 591 kts 100°
2026-04-25 21:58 32.00111 -106.69541 40944 ft 591 kts 100°
2026-04-25 21:58 31.99007 -106.59960 40953 ft 590 kts 101°
2026-04-25 21:59 31.97893 -106.50363 40930 ft 592 kts 101°
2026-04-25 21:59 31.96774 -106.40776 40918 ft 591 kts 101°
2026-04-25 22:00 31.95220 -106.26372 40917 ft 592 kts 97°
2026-04-25 22:00 31.94905 -106.16686 40929 ft 594 kts 92°
2026-04-25 22:01 31.94817 -106.07010 40912 ft 594 kts 92°
2026-04-25 22:01 31.94723 -105.98847 40916 ft 593 kts 92°
2026-04-25 22:02 31.94621 -105.92446 41023 ft 583 kts 92°
2026-04-25 22:02 31.94539 -105.87741 41057 ft 569 kts 92°
2026-04-25 22:02 31.94361 -105.78345 40943 ft 578 kts 93°
2026-04-25 22:03 31.94173 -105.68804 40930 ft 588 kts 93°
2026-04-25 22:03 31.93979 -105.59098 40903 ft 595 kts 93°
2026-04-25 22:04 31.93779 -105.49356 40880 ft 594 kts 93°
2026-04-25 22:04 31.93573 -105.39679 40859 ft 594 kts 93°
2026-04-25 22:05 31.93365 -105.29944 40844 ft 594 kts 93°
2026-04-25 22:05 31.93158 -105.20224 40840 ft 594 kts 93°
2026-04-25 22:06 31.92947 -105.10488 40821 ft 594 kts 93°
2026-04-25 22:06 31.92730 -105.00770 40810 ft 594 kts 93°
2026-04-25 22:07 31.92541 -104.92701 40792 ft 590 kts 92°
2026-04-25 22:07 31.92275 -104.81480 40782 ft 589 kts 92°
2026-04-25 22:08 31.92037 -104.71840 40794 ft 590 kts 92°
2026-04-25 22:08 31.91787 -104.62179 40781 ft 591 kts 92°
2026-04-25 22:09 31.91535 -104.52505 40787 ft 589 kts 92°
2026-04-25 22:09 31.91277 -104.42858 40790 ft 590 kts 92°
2026-04-25 22:10 31.91009 -104.33196 40779 ft 591 kts 92°
2026-04-25 22:10 31.90733 -104.23532 40789 ft 589 kts 92°
2026-04-25 22:11 31.90449 -104.13864 40784 ft 591 kts 92°
2026-04-25 22:11 31.90160 -104.04247 40783 ft 591 kts 92°
2026-04-25 22:12 31.89862 -103.94574 40783 ft 590 kts 92°
2026-04-25 22:12 31.89661 -103.88162 40775 ft 591 kts 92°
2026-04-25 22:13 31.89245 -103.75242 40781 ft 590 kts 92°
2026-04-25 22:13 31.88926 -103.65643 40768 ft 588 kts 92°
2026-04-25 22:14 31.88601 -103.56018 40775 ft 587 kts 92°
2026-04-25 22:14 31.88325 -103.48008 40769 ft 588 kts 92°
2026-04-25 22:15 31.87931 -103.36827 40763 ft 588 kts 92°
2026-04-25 22:16 31.87604 -103.24036 40731 ft 588 kts 87°
2026-04-25 22:16 31.88571 -103.14502 40768 ft 585 kts 78°
2026-04-25 22:17 31.89971 -103.05062 40759 ft 584 kts 78°
2026-04-25 22:17 31.90642 -103.00452 40945 ft 559 kts 79°
2026-04-25 22:17 31.91254 -102.95997 40734 ft 548 kts 78°
2026-04-25 22:18 31.92432 -102.87096 40770 ft 553 kts 79°
2026-04-25 22:18 31.93605 -102.78131 40787 ft 561 kts 79°
2026-04-25 22:19 31.94795 -102.68972 40777 ft 570 kts 79°
2026-04-25 22:19 31.96000 -102.59652 40786 ft 578 kts 79°
2026-04-25 22:20 31.97204 -102.50284 40791 ft 586 kts 79°
2026-04-25 22:20 31.98420 -102.40754 40777 ft 587 kts 79°
2026-04-25 22:21 31.99625 -102.31255 40787 ft 586 kts 79°
2026-04-25 22:21 32.00825 -102.21743 40790 ft 586 kts 79°
2026-04-25 22:22 32.02014 -102.12249 40778 ft 585 kts 79°
2026-04-25 22:22 32.03197 -102.02767 40790 ft 585 kts 79°
2026-04-25 22:23 32.04375 -101.93263 40787 ft 586 kts 79°
2026-04-25 22:23 32.05547 -101.83743 40781 ft 586 kts 79°
2026-04-25 22:24 32.06709 -101.74240 40792 ft 585 kts 79°
2026-04-25 22:24 32.07862 -101.64731 40783 ft 586 kts 79°
2026-04-25 22:25 32.09007 -101.55265 40782 ft 586 kts 79°
2026-04-25 22:25 32.10149 -101.45752 40785 ft 585 kts 79°
2026-04-25 22:26 32.11284 -101.36232 40771 ft 586 kts 79°
2026-04-25 22:26 32.12416 -101.26668 40773 ft 586 kts 79°
2026-04-25 22:27 32.13536 -101.17138 40766 ft 588 kts 79°
2026-04-25 22:27 32.14654 -101.07577 40754 ft 588 kts 79°
2026-04-25 22:28 32.15765 -100.98009 40761 ft 587 kts 79°
2026-04-25 22:28 32.16867 -100.88454 40747 ft 588 kts 79°
2026-04-25 22:29 32.17958 -100.78923 40755 ft 587 kts 79°
2026-04-25 22:29 32.19042 -100.69377 40756 ft 588 kts 79°
2026-04-25 22:30 32.20664 -100.54998 40754 ft 587 kts 79°
2026-04-25 22:30 32.21553 -100.47060 40756 ft 588 kts 79°
2026-04-25 22:31 32.22790 -100.35926 40749 ft 587 kts 79°
2026-04-25 22:31 32.23845 -100.26350 40755 ft 588 kts 79°
2026-04-25 22:32 32.24900 -100.16773 40707 ft 576 kts 81°
2026-04-25 22:32 32.25393 -100.12165 40685 ft 559 kts 79°
2026-04-25 22:32 32.25879 -100.07619 40689 ft 559 kts 78°
2026-04-25 22:33 32.26879 -99.98428 40718 ft 567 kts 79°
2026-04-25 22:33 32.27783 -99.89088 40719 ft 577 kts 81°
2026-04-25 22:34 32.28444 -99.79538 40710 ft 588 kts 83°
2026-04-25 22:34 32.28974 -99.69843 40721 ft 594 kts 83°
2026-04-25 22:35 32.29468 -99.60082 40719 ft 594 kts 83°
2026-04-25 22:35 32.29961 -99.50404 40717 ft 593 kts 83°
2026-04-25 22:36 32.30456 -99.40665 40725 ft 593 kts 83°
2026-04-25 22:36 32.30946 -99.30933 40717 ft 594 kts 83°
2026-04-25 22:37 32.31428 -99.21172 40726 ft 593 kts 83°
2026-04-25 22:37 32.31897 -99.11435 40676 ft 593 kts 83°
2026-04-25 22:38 32.32134 -99.06557 40057 ft 597 kts 83°
2026-04-25 22:38 32.32365 -99.01676 39598 ft 589 kts 83°
2026-04-25 22:38 32.32590 -98.96916 39196 ft 583 kts 83°
2026-04-25 22:38 32.32815 -98.92146 38689 ft 583 kts 83°
2026-04-25 22:39 32.33047 -98.87278 38108 ft 586 kts 83°
2026-04-25 22:39 32.33272 -98.82508 37476 ft 587 kts 83°
2026-04-25 22:39 32.33495 -98.77700 36804 ft 585 kts 83°
2026-04-25 22:39 32.33715 -98.72907 36104 ft 581 kts 84°
2026-04-25 22:40 32.33930 -98.68163 35397 ft 576 kts 83°
2026-04-25 22:40 32.34140 -98.63447 34690 ft 570 kts 83°
2026-04-25 22:40 32.34347 -98.58788 33989 ft 564 kts 84°
2026-04-25 22:40 32.34553 -98.54169 33291 ft 562 kts 84°
2026-04-25 22:41 32.34760 -98.49529 32585 ft 563 kts 84°
2026-04-25 22:41 32.34959 -98.44996 31891 ft 554 kts 84°
2026-04-25 22:41 32.35154 -98.40483 31203 ft 545 kts 84°
2026-04-25 22:41 32.35344 -98.36042 30530 ft 535 kts 84°
2026-04-25 22:42 32.35529 -98.31672 29878 ft 527 kts 84°
2026-04-25 22:42 32.35710 -98.27375 29225 ft 519 kts 85°
2026-04-25 22:42 32.35885 -98.23144 28538 ft 512 kts 85°
2026-04-25 22:42 32.36057 -98.18945 27810 ft 507 kts 85°
2026-04-25 22:43 32.36225 -98.14789 27097 ft 502 kts 85°
2026-04-25 22:43 32.36389 -98.10699 26404 ft 497 kts 85°
2026-04-25 22:43 32.36548 -98.06647 25723 ft 492 kts 85°
2026-04-25 22:43 32.36713 -98.02612 25037 ft 486 kts 86°
2026-04-25 22:44 32.36869 -97.98680 24373 ft 481 kts 86°
2026-04-25 22:44 32.37021 -97.94755 23717 ft 475 kts 86°
2026-04-25 22:44 32.37171 -97.90876 23058 ft 470 kts 86°
2026-04-25 22:44 32.37320 -97.87044 22435 ft 464 kts 86°
2026-04-25 22:45 32.37467 -97.83246 21873 ft 458 kts 86°
2026-04-25 22:45 32.37614 -97.79457 21307 ft 451 kts 86°
2026-04-25 22:45 32.37755 -97.75818 20759 ft 446 kts 86°
2026-04-25 22:45 32.37895 -97.72157 20206 ft 441 kts 86°
2026-04-25 22:46 32.38033 -97.68552 19664 ft 435 kts 86°
2026-04-25 22:46 32.38318 -97.65766 19233 ft 429 kts 77°
2026-04-25 22:46 32.39384 -97.62562 18683 ft 417 kts 58°
2026-04-25 22:46 32.41065 -97.59767 18145 ft 408 kts 48°
2026-04-25 22:47 32.42898 -97.57271 17421 ft 407 kts 42°
2026-04-25 22:47 32.44883 -97.54874 16689 ft 406 kts 39°
2026-04-25 22:47 32.46912 -97.52554 16079 ft 403 kts 38°
2026-04-25 22:47 32.48931 -97.50286 15640 ft 395 kts 39°
2026-04-25 22:48 32.50902 -97.48062 15279 ft 386 kts 40°
2026-04-25 22:48 32.52819 -97.45879 14958 ft 377 kts 40°
2026-04-25 22:48 32.54655 -97.43780 14665 ft 369 kts 40°
2026-04-25 22:48 32.56507 -97.41660 14406 ft 359 kts 40°
2026-04-25 22:49 32.58254 -97.39658 14239 ft 348 kts 40°
2026-04-25 22:49 32.59980 -97.37681 14018 ft 340 kts 40°
2026-04-25 22:49 32.61665 -97.35750 13756 ft 334 kts 40°
2026-04-25 22:49 32.63327 -97.33846 13466 ft 330 kts 40°
2026-04-25 22:50 32.64969 -97.31964 13161 ft 326 kts 40°
2026-04-25 22:50 32.66590 -97.30105 12860 ft 323 kts 40°
2026-04-25 22:50 32.68197 -97.28259 12630 ft 317 kts 40°
2026-04-25 22:50 32.69768 -97.26453 12436 ft 311 kts 40°
2026-04-25 22:51 32.71311 -97.24678 12249 ft 306 kts 40°
2026-04-25 22:51 32.72807 -97.22956 12075 ft 300 kts 40°
2026-04-25 22:51 32.74286 -97.21254 12004 ft 290 kts 41°
2026-04-25 22:51 32.75715 -97.19615 11981 ft 280 kts 41°
2026-04-25 22:52 32.77125 -97.18068 11903 ft 274 kts 36°
2026-04-25 22:52 32.78847 -97.17172 11669 ft 270 kts 11°
2026-04-25 22:52 32.80704 -97.16912 11616 ft 267 kts 360°
2026-04-25 22:52 32.81934 -97.16829 11453 ft 271 kts 357°
2026-04-25 22:53 32.84460 -97.16744 11015 ft 276 kts 355°
2026-04-25 22:53 32.86415 -97.16705 10662 ft 279 kts 355°
2026-04-25 22:53 32.88356 -97.16673 10319 ft 281 kts 355°
2026-04-25 22:53 32.90291 -97.16644 10047 ft 280 kts 355°
2026-04-25 22:54 32.92236 -97.16614 9778 ft 279 kts 355°
2026-04-25 22:54 32.94215 -97.16587 9401 ft 283 kts 355°
2026-04-25 22:54 32.96170 -97.16559 9029 ft 286 kts 355°
2026-04-25 22:54 32.98161 -97.16532 8660 ft 288 kts 356°
2026-04-25 22:55 33.00171 -97.16505 8300 ft 289 kts 356°
2026-04-25 22:55 33.02192 -97.16481 7958 ft 290 kts 356°
2026-04-25 22:55 33.04206 -97.16457 7652 ft 289 kts 356°
2026-04-25 22:55 33.06213 -97.16433 7406 ft 286 kts 356°
2026-04-25 22:56 33.08200 -97.16409 7156 ft 284 kts 356°
2026-04-25 22:56 33.10160 -97.16387 6900 ft 282 kts 356°
2026-04-25 22:56 33.12125 -97.16078 6552 ft 288 kts 11°
2026-04-25 22:56 33.13323 -97.15414 6393 ft 288 kts 26°
2026-04-25 22:57 33.14794 -97.13827 6161 ft 283 kts 49°
2026-04-25 22:57 33.15829 -97.11039 5718 ft 277 kts 79°
2026-04-25 22:57 33.15917 -97.09498 5503 ft 273 kts 92°
2026-04-25 22:57 33.15786 -97.06525 5161 ft 270 kts 99°
2026-04-25 22:58 33.15614 -97.04316 5023 ft 263 kts 103°
2026-04-25 22:58 33.15444 -97.02910 5007 ft 255 kts 105°
2026-04-25 22:58 33.14889 -97.01008 4891 ft 230 kts 126°
2026-04-25 22:58 33.13793 -96.99867 4940 ft 200 kts 155°
2026-04-25 22:59 33.12427 -96.99606 4848 ft 195 kts 184°
2026-04-25 22:59 33.11214 -97.00234 4619 ft 190 kts 210°
2026-04-25 22:59 33.10168 -97.01162 4477 ft 187 kts 214°
2026-04-25 22:59 33.09048 -97.01955 4172 ft 191 kts 209°
2026-04-25 23:00 33.07790 -97.02420 3832 ft 186 kts 193°
2026-04-25 23:00 33.06546 -97.02529 3648 ft 177 kts 186°
2026-04-25 23:00 33.05348 -97.02557 3415 ft 165 kts 183°
2026-04-25 23:00 33.04264 -97.02536 3233 ft 147 kts 182°
2026-04-25 23:01 33.03997 -97.02529 3179 ft 146 kts 182°
2026-04-25 23:01 33.02988 -97.02518 2969 ft 143 kts 182°
2026-04-25 23:01 33.02001 -97.02527 2778 ft 141 kts 184°
2026-04-25 23:01 33.01024 -97.02553 2592 ft 139 kts 183°
2026-04-25 23:02 33.00057 -97.02566 2391 ft 138 kts 182°
2026-04-25 23:02 32.99116 -97.02555 2211 ft 137 kts 183°
2026-04-25 23:02 32.98171 -97.02559 2028 ft 135 kts 182°
2026-04-25 23:02 32.97241 -97.02561 1860 ft 131 kts 182°
2026-04-25 23:03 32.96338 -97.02568 1673 ft 129 kts 182°
2026-04-25 23:03 32.95449 -97.02580 1510 ft 127 kts 181°
2026-04-25 23:03 32.94561 -97.02584 1340 ft 128 kts 181°
2026-04-25 23:03 32.93668 -97.02587 1171 ft 128 kts 181°
2026-04-25 23:04 32.92768 -97.02590 999 ft 131 kts 180°
2026-04-25 23:04 32.91821 -97.02595 825 ft 141 kts 180°
2026-04-25 23:04 32.90809 -97.02601 644 ft 147 kts 180°
2026-04-25 23:04 32.89817 -97.02608 621 ft 126 kts 179°
2026-04-25 23:05 32.89199 -97.02609 620 ft 49 kts 181°
2026-04-25 23:05 32.88967 -97.02613 620 ft 25 kts 183°
2026-04-25 23:05 32.88802 -97.02665 620 ft 25 kts 211°
2026-04-25 23:05 32.88663 -97.02770 620 ft 16 kts 212°
2026-04-25 23:06 32.88598 -97.02849 620 ft 13 kts 257°
2026-04-25 23:06 32.88596 -97.02996 620 ft 22 kts 270°
2026-04-25 23:06 32.88597 -97.03185 620 ft 19 kts 271°
2026-04-25 23:06 32.88610 -97.03306 620 ft 12 kts 315°
2026-04-25 23:07 32.88723 -97.03322 620 ft 22 kts 359°
2026-04-25 23:07 32.88907 -97.03320 620 ft 31 kts
2026-04-25 23:07 32.89066 -97.03318 620 ft 14 kts 351°
2026-04-25 23:07 32.89105 -97.03428 620 ft 19 kts 264°
2026-04-25 23:08 32.89098 -97.03492 620 ft 0 kts 262°